Regional Weather Roundup
Issued by NWS

Home | Current Version | Previous Version | Text Only | Print | Product List | Glossary On
Versions: 1 2 3 4 5 6 7 8 9 10 11 12 13 14 15 16 17 18 19 20 21 22 23 24 25 26 27 28 29 30 31 32 33 34 35 36 37 38 39 40 41 42 43 44 45 46 47 48 49 50
266
ASUS43 KMKX 242059
RWRWI

WISCONSIN REGIONAL WEATHER ROUNDUP
NATIONAL WEATHER SERVICE MILWAUKEE/SULLIVAN WI
300 PM CST SAT FEB 24 2018

NOTE: "FAIR" INDICATES FEW OR NO CLOUDS BELOW 12,000 FEET WITH NO
SIGNIFICANT WEATHER AND/OR OBSTRUCTIONS TO VISIBILITY.

WIZ001-002-006>008-014>016-023>028-242200-
NORTHWEST WISCONSIN

CITY           SKY/WX    TMP DP  RH WIND       PRES   REMARKS
SUPERIOR ARPT  PTSUNNY   23  17  77 E8        29.99S WCI  14
ASHLAND        FAIR      26  20  77 NE12      29.99F WCI  16
HAYWARD        CLOUDY    33  21  61 NE8       29.88F WCI  26
SIREN          CLOUDY    32  20  63 NE9       29.88F WCI  24
CUMBERLAND     PTSUNNY   30  19  64 E9        29.85F WCI  22
RICE LAKE      FAIR      31  23  72 E8        29.89F WCI  24
CHETEK         CLOUDY    32  23  69 E8        29.87F WCI  25
LADYSMITH      CLOUDY    34  23  62 E12       29.92F WCI  26
EAU CLAIRE     NOT AVBL
MENOMONIE      CLOUDY    31  24  75 NE10      29.85F WCI  22
NEW RICHMOND   CLOUDY    29  21  71 E5        29.86F WCI  24
OSCEOLA        PTSUNNY   29  21  70 E3        29.90F
$$

WIZ003>005-009-010-017-018-242200-
NORTH CENTRAL WISCONSIN

CITY           SKY/WX    TMP DP  RH WIND       PRES   REMARKS
MANITOWISH WTR PTSUNNY   33  20  59 E7        29.96R WCI  27
ARBOR VITAE    CLOUDY    37  25  63 SE9       29.95F WCI  30
WOODRUFF       CLOUDY    37  25  63 SE9       29.95F WCI  30
RHINELANDER    CLOUDY    34  24  67 E13       29.93F WCI  25
EAGLE RIVER    FAIR      35  20  55 SE8       29.95F WCI  28
LAND O LAKES   PTSUNNY   35  22  57 SE8       29.98S WCI  29
PHILLIPS       CLOUDY    33  22  64 E9        29.89F WCI  25
TOMAHAWK       CLOUDY    34  24  66 E7        29.93F WCI  28
MEDFORD        CLOUDY    32  22  67 E13G21    29.88F WCI  22
MERRILL        CLOUDY    36  23  60 SE13G21   29.91F WCI  27
$$

WIZ029-030-035-036-043>047-242200-
CENTRAL WISCONSIN

CITY           SKY/WX    TMP DP  RH WIND       PRES   REMARKS
WAUSAU         CLOUDY    33  24  69 E15       29.90F WCI  23
MOSINEE        CLOUDY    34  25  69 E15G23    29.91F WCI  24
MARSHFIELD     CLOUDY    33  25  72 E18G24    29.87F WCI  22
STEVENS POINT  CLOUDY    32  26  77 E13       29.95F WCI  22
WAUPACA        CLOUDY    37  28  69 E17       29.98F WCI  27
WAUTOMA        CLOUDY    34  26  72 E14G25    29.92F WCI  25
WISC RAPIDS    CLOUDY    34  24  67 SE16G26   29.91F WCI  24
CAMP DOUGLAS   NOT AVBL
$$

WIZ011>013-019>022-031-037>040-048>050-242200-
NORTHEAST WISCONSIN

CITY           SKY/WX    TMP DP  RH WIND       PRES   REMARKS
ANTIGO         PTSUNNY   32  23  69 E14       29.95F WCI  22
SHAWANO        PTSUNNY   38  27  66 E9G16     30.00F WCI  31
OCONTO         FAIR      35  26  71 E7G17     30.04F WCI  29
STURGEON BAY   FAIR      33  25  72 NE12      30.03F WCI  24
GREEN BAY      CLOUDY    35  26  69 E14G20    30.01F WCI  26
MANITOWOC      CLOUDY    34  27  75 E9        30.01F WCI  27
APPLETON       CLOUDY    34  23  64 E12       29.96  WCI  25
CLINTONVILLE   CLOUDY    35  26  68 E10       30.00S WCI  27
OSHKOSH        CLOUDY    34  28  79 E13       29.95F WCI  25
$$

WIZ032>034-041-042-053>061-242200-
SOUTHWEST WISCONSIN

CITY           SKY/WX    TMP DP  RH WIND       PRES   REMARKS
LA CROSSE      CLOUDY    37  27  67 SE13G22   29.84F WCI  29
SPARTA         CLOUDY    35  28  75 E16G23    29.87F WCI  25
VIROQUA        CLOUDY    33  29  88 E16       29.83F WCI  22
BOSCOBEL       CLOUDY    37  28  70 E9        29.84F WCI  30
PRAIRIE DU CHI DRIZZLE   35  29  80 E12       29.83F WCI  26
PLATTEVILLE    CLOUDY    35  32  90 E12       29.83F WCI  26
$$

WIZ056-057-062-063-064-067-068-242200-
SOUTH CENTRAL WISCONSIN

CITY           SKY/WX    TMP DP  RH WIND       PRES   REMARKS
REEDSBURG      CLOUDY    35  27  73 E9G17     29.87F WCI  27
BARABOO/DELLS  CLOUDY    35  27  74 E14       29.89F WCI  25
LONE ROCK      NOT AVBL
MINERAL POINT  CLOUDY    36  34  93 E15G21    29.83F WCI  26
MADISON        CLOUDY    36  29  75 E17       29.89F WCI  26
MIDDLETON      CLOUDY    37  31  78 E15       29.88F WCI  28
WATERTOWN      CLOUDY    35  32  87 E15       29.92F WCI  25
MONROE         CLOUDY    36  32  87 E16G22    29.85F WCI  26
JANESVILLE     CLOUDY    37  36  93 E12G17    29.89F WCI  30
$$

WIZ051-052-058>065-066-070>072-242200-
SOUTHEAST WISCONSIN

CITY           SKY/WX    TMP DP  RH WIND       PRES   REMARKS
MILWAUKEE      CLOUDY    37  32  82 E14       29.95F WCI  28
WAUKESHA       CLOUDY    34  28  80 E14G22    29.95F WCI  24
MILWAUKEE/TIMM CLOUDY    36  27  69 E12G17    29.97F WCI  27
RACINE         CLOUDY    36  32  85 E10       29.96F WCI  28
BURLINGTON     CLOUDY    35  31  84 E14       29.93F WCI  26
KENOSHA        CLOUDY    37  31  78 E17       29.92F WCI  27
FOND DU LAC    CLOUDY    35  27  72 E14       29.97F WCI  26
SHEBOYGAN      CLOUDY    34  29  82 E10       29.99F WCI  26
WEST BEND      CLOUDY    34  32  93 E9G17     29.97F WCI  26
JUNEAU         CLOUDY    34  29  83 E20       29.94F WCI  22
$$

LSZ147-162-242200-
LAKE SUPERIOR

STATION/POSITION TIME  TEMP    WIND        PRES    WAVE
                       AIR SEA DIR/SP/G            HT/PER
                 (UTC) (F)     (DEG/KT/KT) (MB)    (FT/S)
DEVILS ISLAND    2000   23      50/ 11/ 12 1018.1F
SAXON HARBOR     2040   23      40/ 12/ 16 1015.6F
$$

LMZ867-665-643>646-242200-
LAKE MICHIGAN

STATION/POSITION TIME  TEMP    WIND        PRES    WAVE
                       AIR SEA DIR/SP/G            HT/PER
                 (UTC) (F)     (DEG/KT/KT) (MB)    (FT/S)
NORTHPORT PIER   2040   32                 1018.3F
KEWAUNEE LAKESHO 2030   34      80/  8/ 11 1016.5F
SHEBOYGAN LAKESH 2000   33      70/ 12/ 13 1017.6F
PORT WASHINGTON  2000   36      90/ 11/ 16 1016.9
KENOSHA   LAKESH 2000   35      90/  8/ 10 1015.2
$$

TC  - TEMPERATURE IN CELSIUS
VSB - VISIBILITY IN STATUTE MILES
WCI - WIND CHILL INDEX
HX  - HEAT INDEX





USA.gov is the U.S. government's official web portal to all federal, state and local government web resources and services.